Terug naar catalogus

STARLINK-5058

ActiefCommunicatieVLEO
NORAD 55456·PAYLOAD·🇺🇸 United States

Gelanceerd Feb 2, 2023 vanaf Cape Canaveral Space Force Station

Loading…

Volgende Passages (komende 24 uur)

TLE

VersSource: CelesTrak SupGP

Epoch: Sep 15, 2026, 01:46 UTC

1 55456C 23015H   26258.07409722  .00010519  00000+0  38108-3 0  2586
2 55456  43.0015 339.1076 0001552 261.1549 213.2613 15.27567041    17

Volg STARLINK-5058 in realtime met AllMySat

Download on the App Store